TimeCDT,TemperatureF,Dew PointF,Humidity,Sea Level PressureIn,VisibilityMPH,Wind Direction,Wind SpeedMPH,Gust SpeedMPH,PrecipitationIn,Events,Conditions,WindDirDegrees,DateUTC
12:52 AM,68.0,59.0,73,29.75,10.0,SSE,9.2,-,N/A,,Mostly Cloudy,150,2013-05-20 05:52:00
1:52 AM,72.0,61.0,68,29.75,10.0,South,11.5,-,N/A,,Overcast,180,2013-05-20 06:52:00
2:52 AM,69.1,62.1,78,29.74,9.0,SSE,6.9,-,N/A,,Mostly Cloudy,160,2013-05-20 07:52:00
3:52 AM,64.0,59.0,84,29.71,6.0,SE,6.9,-,N/A,,Haze,140,2013-05-20 08:52:00
4:52 AM,62.6,59.0,88,29.74,6.0,Calm,Calm,-,N/A,,Mostly Cloudy,0,2013-05-20 09:52:00
5:52 AM,64.9,61.0,87,29.73,5.0,SSE,8.1,-,0.00,,Mostly Cloudy,150,2013-05-20 10:52:00
6:52 AM,64.0,60.1,87,29.76,5.0,South,4.6,-,N/A,,Mostly Cloudy,180,2013-05-20 11:52:00
7:52 AM,73.0,66.0,79,29.75,8.0,SSW,12.7,-,N/A,,Mostly Cloudy,200,2013-05-20 12:52:00
8:52 AM,75.0,63.0,66,29.73,10.0,South,16.1,-,N/A,,Mostly Cloudy,190,2013-05-20 13:52:00
9:52 AM,73.0,63.0,71,29.72,7.0,SE,9.2,-,N/A,,Mostly Cloudy,140,2013-05-20 14:52:00
10:52 AM,80.1,59.0,48,29.73,10.0,SSW,20.7,27.6,N/A,,Mostly Cloudy,200,2013-05-20 15:52:00
11:52 AM,82.0,57.0,42,29.73,10.0,SSW,18.4,24.2,N/A,,Mostly Cloudy,210,2013-05-20 16:52:00
12:52 PM,82.0,57.0,42,29.73,10.0,SW,16.1,-,N/A,,Scattered Clouds,220,2013-05-20 17:52:00
1:52 PM,84.0,57.0,40,29.71,10.0,SSW,17.3,25.3,N/A,,Scattered Clouds,210,2013-05-20 18:52:00
2:52 PM,86.0,55.0,35,29.71,10.0,SW,20.7,32.2,N/A,,Mostly Cloudy,220,2013-05-20 19:52:00
3:52 PM,84.9,55.0,36,29.70,10.0,SW,20.7,31.1,N/A,,Mostly Cloudy,220,2013-05-20 20:52:00
4:52 PM,84.9,55.0,36,29.68,10.0,SSW,23.0,28.8,N/A,,Scattered Clouds,200,2013-05-20 21:52:00
5:52 PM,84.0,55.0,37,29.68,10.0,SW,16.1,24.2,N/A,,Scattered Clouds,220,2013-05-20 22:52:00
6:52 PM,82.9,57.0,41,29.68,10.0,SW,10.4,-,N/A,,Scattered Clouds,220,2013-05-20 23:52:00
7:52 PM,81.0,55.9,42,29.68,10.0,SW,11.5,-,N/A,,Partly Cloudy,220,2013-05-21 00:52:00
8:52 PM,77.0,57.0,50,29.69,10.0,SSW,4.6,-,N/A,,Scattered Clouds,200,2013-05-21 01:52:00
9:52 PM,75.0,57.0,53,29.69,10.0,SSE,3.5,-,N/A,,Mostly Cloudy,160,2013-05-21 02:52:00
10:52 PM,73.0,59.0,61,29.67,10.0,Calm,Calm,-,N/A,,Overcast,0,2013-05-21 03:52:00
11:15 PM,71.6,64.4,78,29.70,7.0,ESE,8.1,-,0.05,Rain-Thunderstorm,Light Thunderstorms and Rain,120,2013-05-21 04:15:00
11:52 PM,72.0,62.1,71,29.71,10.0,South,9.2,18.4,0.05,Rain-Thunderstorm,Light Thunderstorms and Rain,190,2013-05-21 04:52:00